Westfield, IN

2:19 PM EDT on August 29, 2016 (GMT -0400)
Indianapolis Terry

Weather History for KTYQ - August, 2014

Change the Weather History Date:

Tuesday, August 26, 2014

  Actual Average (KEYE) Record (KEYE)
Temperature  
Mean Temperature 76 °F 74 °F  
Max Temperature 89 °F 83 °F 91 °F (2014)
Min Temperature 64 °F 64 °F 58 °F (2008)
Degree Days  
Heating Degree Days 0 0  
Month to date heating degree days 0  
Since 1 June heating degree days 15  
Since 1 July heating degree days 1  
Cooling Degree Days 11 9  
Month to date cooling degree days 246  
Year to date cooling degree days 882  
Since 1 June cooling degree days 798  
Growing Degree Days 26 (Base 50)    
Moisture  
Dew Point 67 °F    
Average Humidity 79    
Maximum Humidity 91    
Minimum Humidity 55    
Precipitation  
Precipitation 0.01 in 0.12 in 0.74 in (2006)
Month to date precipitation 2.60  
Year to date precipitation 28.06  
Sea Level Pressure  
Sea Level Pressure 30.11 in    
Wind  
Wind Speed 3 mph (West)    
Max Wind Speed 18 mph    
Max Gust Speed 34 mph    
Visibility 9 miles    
Events Rain , Thunderstorm    
T = Trace of Precipitation, MM = Missing Value Source: NWS Daily Summary

Daily Weather History Graph

Daily Weather History Graph

Search for Another Location

Airport or City:

Trip Planner

Search our weather history database for the weather conditions in past years. The results will help you decide how hot, cold, wet, or windy it might be!

Date:

Astronomy

Aug. 26, 2014 Rise Set
Actual Time 7:07 AM EDT 8:25 PM EDT
Civil Twilight 6:38 AM EDT 8:53 PM EDT
Nautical Twilight 6:05 AM EDT 9:27 PM EDT
Astronomical Twilight 5:29 AM EDT 10:02 PM EDT
Moon 8:07 AM EDT (8/26) 8:46 PM EDT (8/26)
Length of Visible Light 14h 15m
Length of Day
13h 18m
New Moon, 1% of the Moon is Illuminated
Aug 26
New Moon
Sep 2
First Quarter
Sep 8
Full
Sep 15
Last Quarter
Sep 24
New

Hourly Weather History & Observations

Time (EDT) Temp. Heat Index Dew Point Humidity Pressure Visibility Wind Dir Wind Speed Gust Speed Precip Events Conditions
12:15 AM 71.4 °F - 64.8 °F 79% 30.07 in 10.0 mi SSE 6.9 mph - N/A   Clear
12:35 AM 71.4 °F - 65.3 °F 81% 30.07 in 10.0 mi Calm Calm - N/A   Clear
12:55 AM 71.6 °F - 65.3 °F 80% 30.05 in 10.0 mi SE 6.9 mph - N/A   Clear
1:15 AM 71.6 °F - 65.5 °F 81% 30.05 in 10.0 mi ESE 5.8 mph - N/A   Clear
1:35 AM 71.6 °F - 65.5 °F 81% 30.05 in 10.0 mi SSE 4.6 mph - N/A   Clear
1:55 AM 71.6 °F - 65.8 °F 82% 30.05 in 10.0 mi East 4.6 mph - N/A   Clear
2:15 AM 71.4 °F - 66.2 °F 84% 30.08 in 10.0 mi WNW 5.8 mph 9.2 mph N/A   Clear
2:35 AM 71.1 °F - 65.7 °F 83% 30.08 in 10.0 mi Calm Calm - N/A   Clear
2:55 AM 70.3 °F - 65.7 °F 85% 30.08 in 10.0 mi SW 3.5 mph - N/A   Clear
3:15 AM 69.3 °F - 65.3 °F 87% 30.07 in 10.0 mi Calm Calm - N/A   Clear
3:35 AM 69.3 °F - 65.5 °F 88% 30.07 in 7.0 mi Calm Calm - N/A   Clear
3:55 AM 68.5 °F - 64.9 °F 88% 30.08 in 7.0 mi Calm Calm - N/A   Clear
4:15 AM 68.0 °F - 64.4 °F 88% 30.08 in 7.0 mi Calm Calm - N/A   Clear
4:35 AM 68.0 °F - 64.6 °F 89% 30.09 in 7.0 mi Calm Calm - N/A   Clear
4:55 AM 66.7 °F - 63.5 °F 89% 30.08 in 5.0 mi Calm Calm - N/A   Clear
5:15 AM 67.3 °F - 64.0 °F 89% 30.08 in 5.0 mi Calm Calm - N/A   Clear
5:35 AM 65.8 °F - 62.6 °F 89% 30.09 in 4.0 mi Calm Calm - N/A   Clear
5:55 AM 66.0 °F - 62.8 °F 89% 30.09 in 1.5 mi Calm Calm - N/A   Mostly Cloudy
6:15 AM 65.8 °F - 62.8 °F 90% 30.09 in 2.0 mi Calm Calm - N/A   Scattered Clouds
6:35 AM 65.5 °F - 62.6 °F 90% 30.10 in 2.0 mi Calm Calm - N/A   Clear
6:55 AM 64.9 °F - 62.1 °F 90% 30.11 in 3.0 mi Calm Calm - N/A   Clear
7:15 AM 65.3 °F - 62.6 °F 91% 30.12 in 3.0 mi Calm Calm - N/A   Clear
7:35 AM 65.5 °F - 62.6 °F 90% 30.13 in 4.0 mi Calm Calm - N/A   Clear
7:55 AM 65.8 °F - 63.0 °F 90% 30.13 in 3.0 mi Calm Calm - N/A   Clear
8:15 AM 68.9 °F - 66.2 °F 91% 30.13 in 5.0 mi Calm Calm - N/A   Scattered Clouds
8:35 AM 70.3 °F - 67.3 °F 90% 30.14 in 7.0 mi Calm Calm - N/A   Mostly Cloudy
8:55 AM 72.1 °F - 68.7 °F 89% 30.14 in 10.0 mi Calm Calm - N/A   Scattered Clouds
9:15 AM 75.0 °F - 68.7 °F 81% 30.15 in 10.0 mi SW 3.5 mph - N/A   Clear
9:55 AM 79.0 °F - 68.0 °F 69% 30.14 in 10.0 mi SW 3.5 mph - N/A   Clear
10:55 AM 83.3 °F 86.9 °F 69.1 °F 62% 30.15 in 10.0 mi WSW 4.6 mph - N/A   Clear
11:15 AM 84.4 °F 89.0 °F 70.3 °F 63% 30.15 in 10.0 mi Calm Calm - N/A   Clear
11:35 AM 85.6 °F 91.8 °F 72.1 °F 64% 30.15 in 10.0 mi West 6.9 mph - N/A   Clear
11:55 AM 85.3 °F 90.8 °F 71.6 °F 63% 30.15 in 10.0 mi West 6.9 mph - N/A   Clear
12:15 PM 86.2 °F 92.6 °F 72.3 °F 63% 30.15 in 10.0 mi West 8.1 mph - N/A   Scattered Clouds
12:35 PM 86.9 °F 92.5 °F 70.9 °F 59% 30.14 in 10.0 mi WNW 8.1 mph - N/A   Scattered Clouds
12:55 PM 86.9 °F 93.3 °F 71.8 °F 61% 30.14 in 10.0 mi NW 3.5 mph - N/A   Clear
1:15 PM 87.1 °F 92.8 °F 71.2 °F 59% 30.14 in 10.0 mi West 5.8 mph - N/A   Scattered Clouds
1:35 PM 87.3 °F 93.2 °F 71.4 °F 59% 30.14 in 10.0 mi WNW 3.5 mph - N/A   Scattered Clouds
1:55 PM 88.2 °F 94.1 °F 71.1 °F 57% 30.14 in 10.0 mi West 4.6 mph - N/A   Clear
2:15 PM 88.3 °F 95.0 °F 71.8 °F 58% 30.11 in 10.0 mi North 4.6 mph - N/A   Clear
2:35 PM 88.7 °F 94.3 °F 70.7 °F 55% 30.11 in 10.0 mi NNE 3.5 mph - N/A   Clear
2:55 PM 88.7 °F 95.2 °F 71.6 °F 57% 30.12 in 10.0 mi NNW 3.5 mph - N/A   Mostly Cloudy
3:15 PM 88.2 °F 93.7 °F 70.5 °F 56% 30.12 in 10.0 mi Calm Calm - N/A Thunderstorm Mostly Cloudy
3:35 PM 88.2 °F 93.7 °F 70.7 °F 56% 30.12 in 10.0 mi East 3.5 mph - N/A   Scattered Clouds
3:55 PM 88.2 °F 96.0 °F 73.0 °F 61% 30.12 in 10.0 mi North 12.7 mph - N/A Thunderstorm Scattered Clouds
4:15 PM 73.9 °F - 63.7 °F 70% 30.14 in 7.0 mi NNW 18.4 mph 34.5 mph 0.01 in Rain , Thunderstorm Light Thunderstorms and Rain
4:35 PM 72.7 °F - 65.3 °F 78% 30.16 in 10.0 mi NW 12.7 mph 20.7 mph 0.01 in Rain , Thunderstorm Light Thunderstorms and Rain
4:55 PM 73.0 °F - 66.2 °F 79% 30.15 in 10.0 mi WNW 5.8 mph - 0.01 in Rain , Thunderstorm Rain
5:15 PM 73.0 °F - 67.1 °F 82% 30.12 in 10.0 mi West 5.8 mph - N/A   Scattered Clouds
5:35 PM 73.4 °F - 67.6 °F 82% 30.12 in 10.0 mi WNW 4.6 mph - N/A Rain Light Rain
5:55 PM 73.9 °F - 68.0 °F 82% 30.12 in 10.0 mi Calm Calm - N/A Rain Light Rain
6:15 PM 74.7 °F - 68.7 °F 82% 30.09 in 10.0 mi South 3.5 mph - N/A   Clear
6:35 PM 75.2 °F - 68.9 °F 81% 30.10 in 10.0 mi WSW 5.8 mph - N/A   Clear
6:55 PM 75.2 °F - 69.1 °F 81% 30.08 in 10.0 mi SSW 3.5 mph - N/A   Clear
7:15 PM 75.4 °F - 69.6 °F 82% 30.09 in 10.0 mi Calm Calm - N/A   Clear
7:35 PM 75.0 °F - 68.9 °F 81% 30.10 in 10.0 mi Calm Calm - N/A   Clear
7:55 PM 74.3 °F - 68.9 °F 83% 30.09 in 10.0 mi Calm Calm - N/A   Clear
8:15 PM 73.4 °F - 68.5 °F 85% 30.08 in 10.0 mi SSE 3.5 mph - N/A   Clear
8:35 PM 73.0 °F - 68.4 °F 85% 30.07 in 10.0 mi Calm Calm - N/A   Clear
8:55 PM 72.9 °F - 68.0 °F 85% 30.08 in 10.0 mi Calm Calm - N/A   Clear
9:15 PM 72.0 °F - 68.0 °F 87% 30.08 in 10.0 mi SSE 3.5 mph - N/A   Clear
9:35 PM 71.6 °F - 67.1 °F 86% 30.09 in 10.0 mi Calm Calm - N/A   Clear
9:55 PM 71.6 °F - 67.3 °F 86% 30.10 in 10.0 mi SE 3.5 mph - N/A   Clear
10:15 PM 70.9 °F - 67.1 °F 88% 30.11 in 10.0 mi Calm Calm - N/A   Clear
10:35 PM 72.1 °F - 67.8 °F 86% 30.12 in 10.0 mi Calm Calm - N/A   Clear
10:55 PM 71.2 °F - 67.3 °F 87% 30.11 in 10.0 mi Calm Calm - N/A   Clear
11:15 PM 70.7 °F - 66.9 °F 88% 30.11 in 10.0 mi Calm Calm - N/A   Clear
11:35 PM 70.3 °F - 66.7 °F 88% 30.11 in 10.0 mi NNW 3.5 mph - N/A   Clear
11:55 PM 69.8 °F - 66.2 °F 88% 30.12 in 7.0 mi Calm Calm - N/A   Clear